SYRACUSE 3A

Last updated on Mon Oct 14 2024 00:02:37 GMT+0000 (Coordinated Universal Time)

1 28885U 05041B 24287.48726471 .00000133 00000+0 00000+0 0 9998 2 28885 3.0736 83.4148 0003417 134.5377 26.2075 1.00270293 69613
UTC large
Height (km)
Speed (km/s)
/
Latitude / Longitude
Inclination (degrees)
Orbital Period (minutes)
Azimuth
Elevation
Range (km)
Doppler Factor

Next 0 passes for location: London (51.5072 / 0.1276)

Sorry there are no passes over London.